Alma, MI

12:03 PM EDT on July 24, 2017 (GMT -0400)
Gratiot Community

Weather History for KAMN - November, 2012

Change the Weather History Date:

Tuesday, November 6, 2012

  Actual Average Record
Temperature  
Mean Temperature 34 °F -  
Max Temperature 39 °F 50 °F 74 °F (1978)
Min Temperature 29 °F 32 °F 13 °F (1951)
Degree Days  
Heating Degree Days 31    
Moisture  
Dew Point 28 °F    
Average Humidity 78    
Maximum Humidity 94    
Minimum Humidity 59    
Precipitation  
Precipitation 0.00 in - - ()
Sea Level Pressure  
Sea Level Pressure 30.05 in    
Wind  
Wind Speed 3 mph (SE)    
Max Wind Speed 10 mph    
Max Gust Speed -    
Visibility 10 miles    
Events      
Averages and records for this station are not official NWS values.
T = Trace of Precipitation, MM = Missing Value Source: NWS Daily Summary

Daily Weather History Graph

Daily Weather History Graph

Search for Another Location

Airport or City:

Trip Planner

Search our weather history database for the weather conditions in past years. The results will help you decide how hot, cold, wet, or windy it might be!

Date:

Astronomy

Nov. 06, 2012 Rise Set
Actual Time 7:20 AM EST 5:23 PM EST
Civil Twilight 6:50 AM EST 5:53 PM EST
Nautical Twilight 6:16 AM EST 6:27 PM EST
Astronomical Twilight 5:43 AM EST 7:00 PM EST
Moon No Moon Rise 1:11 PM EST (11/6)
Length of Visible Light 11h 02m
Length of Day
10h 02m
Waning Gibbous, 53% of the Moon is Illuminated
Nov 6
Waning Gibbous
Nov 6
Last Quarter
Nov 13
New
Nov 20
First Quarter
Nov 28
Full

Hourly Weather History & Observations

Time (EST) Temp. Windchill Dew Point Humidity Pressure Visibility Wind Dir Wind Speed Gust Speed Precip Events Conditions
12:11 AM 29.7 °F - 28.0 °F 94% 30.16 in 10.0 mi Calm Calm - N/A   Overcast
12:31 AM 30.2 °F - 27.9 °F 91% 30.16 in 10.0 mi Calm Calm - N/A   Overcast
12:51 AM 30.4 °F 26.9 °F 28.4 °F 92% 30.15 in 10.0 mi East 3.5 mph - N/A   Overcast
1:11 AM 30.9 °F - 28.9 °F 92% 30.15 in 10.0 mi Calm Calm - N/A   Overcast
1:31 AM 31.1 °F - 28.8 °F 91% 30.15 in 10.0 mi Calm Calm - N/A   Overcast
1:51 AM 31.1 °F - 28.2 °F 89% 30.14 in 10.0 mi Calm Calm - N/A   Overcast
2:11 AM 31.1 °F - 28.4 °F 90% 30.14 in 10.0 mi Calm Calm - N/A   Overcast
2:31 AM 31.1 °F 27.7 °F 28.0 °F 88% 30.14 in 10.0 mi ENE 3.5 mph - N/A   Overcast
2:51 AM 31.1 °F - 27.9 °F 88% 30.14 in 10.0 mi Calm Calm - N/A   Overcast
3:12 AM 31.1 °F 27.7 °F 27.5 °F 87% 30.13 in 10.0 mi East 3.5 mph - N/A   Overcast
3:32 AM 31.5 °F - 27.5 °F 85% 30.11 in 10.0 mi Calm Calm - N/A   Overcast
3:52 AM 31.6 °F - 27.0 °F 83% 30.11 in 10.0 mi Calm Calm - N/A   Overcast
4:12 AM 31.6 °F - 27.3 °F 84% 30.10 in 10.0 mi Calm Calm - N/A   Overcast
4:32 AM 31.6 °F 27.0 °F 27.7 °F 85% 30.09 in 10.0 mi SE 4.6 mph - N/A   Overcast
4:52 AM 31.5 °F - 28.0 °F 87% 30.09 in 10.0 mi Calm Calm - N/A   Overcast
5:12 AM 31.3 °F - 28.4 °F 89% 30.09 in 10.0 mi Calm Calm - N/A   Overcast
5:32 AM 31.1 °F - 28.6 °F 90% 30.09 in 10.0 mi Calm Calm - N/A   Overcast
5:53 AM 30.9 °F - 28.9 °F 92% 30.09 in 10.0 mi Calm Calm - N/A   Overcast
6:13 AM 31.1 °F - 28.9 °F 92% 30.09 in 10.0 mi Calm Calm - N/A   Overcast
6:53 AM 31.1 °F - 28.8 °F 91% 30.09 in 10.0 mi Calm Calm - N/A   Overcast
7:13 AM 31.1 °F - 28.4 °F 90% 30.09 in 10.0 mi Calm Calm - N/A   Overcast
7:33 AM 31.5 °F 28.1 °F 28.6 °F 89% 30.10 in 10.0 mi South 3.5 mph - N/A   Overcast
7:53 AM 31.6 °F 28.3 °F 28.9 °F 90% 30.10 in 10.0 mi SSE 3.5 mph - N/A   Overcast
8:13 AM 32.0 °F 28.7 °F 28.9 °F 88% 30.09 in 10.0 mi SSE 3.5 mph - N/A   Overcast
8:34 AM 32.0 °F 27.5 °F 29.3 °F 90% 30.09 in 10.0 mi SSE 4.6 mph - N/A   Overcast
8:54 AM 32.2 °F 27.7 °F 28.9 °F 88% 30.09 in 10.0 mi South 4.6 mph - N/A   Overcast
9:14 AM 32.5 °F 26.2 °F 28.4 °F 85% 30.09 in 10.0 mi South 6.9 mph - N/A   Overcast
9:34 AM 33.3 °F 26.4 °F 28.8 °F 84% 30.09 in 10.0 mi SSE 8.1 mph - N/A   Overcast
9:54 AM 34.5 °F 29.4 °F 28.9 °F 80% 30.09 in 10.0 mi South 5.8 mph - N/A   Overcast
10:14 AM 35.6 °F 30.7 °F 29.1 °F 77% 30.08 in 10.0 mi South 5.8 mph - N/A   Overcast
10:29 AM 36.5 °F 31.0 °F 29.1 °F 75% 30.08 in 10.0 mi South 6.9 mph - N/A   Overcast
10:49 AM 37.8 °F 31.8 °F 28.0 °F 68% 30.08 in 10.0 mi South 8.1 mph - N/A   Overcast
11:09 AM 38.8 °F 32.1 °F 28.0 °F 65% 30.07 in 10.0 mi South 10.4 mph - N/A   Overcast
11:30 AM 38.5 °F 31.6 °F 27.9 °F 66% 30.07 in 10.0 mi SSE 10.4 mph - N/A   Overcast
11:50 AM 38.7 °F 32.9 °F 27.9 °F 65% 30.06 in 10.0 mi South 8.1 mph - N/A   Overcast
12:10 PM 38.8 °F 33.8 °F 27.7 °F 64% 30.05 in 10.0 mi South 6.9 mph - N/A   Overcast
12:30 PM 38.8 °F 32.6 °F 27.7 °F 64% 30.03 in 10.0 mi South 9.2 mph - N/A   Overcast
12:50 PM 38.3 °F 31.9 °F 27.5 °F 65% 30.03 in 10.0 mi SSE 9.2 mph - N/A   Overcast
1:10 PM 38.3 °F 31.9 °F 26.8 °F 63% 30.02 in 10.0 mi SSE 9.2 mph - N/A   Overcast
1:30 PM 38.7 °F 32.9 °F 26.4 °F 61% 30.02 in 10.0 mi South 8.1 mph - N/A   Overcast
1:50 PM 38.8 °F 33.2 °F 26.6 °F 61% 30.02 in 10.0 mi SSE 8.1 mph - N/A   Overcast
2:11 PM 39.2 °F 35.0 °F 26.2 °F 60% 30.01 in 10.0 mi South 5.8 mph - N/A   Overcast
2:31 PM 39.2 °F 33.0 °F 26.1 °F 59% 30.01 in 10.0 mi South 9.2 mph - N/A   Overcast
2:51 PM 39.2 °F 32.5 °F 25.9 °F 59% 30.00 in 10.0 mi ESE 10.4 mph - N/A   Overcast
3:11 PM 39.4 °F 34.5 °F 26.2 °F 59% 29.99 in 10.0 mi SE 6.9 mph - N/A   Overcast
3:31 PM 39.2 °F 33.0 °F 25.9 °F 59% 29.99 in 10.0 mi SE 9.2 mph - N/A   Overcast
3:51 PM 39.2 °F 34.2 °F 26.2 °F 60% 29.99 in 10.0 mi ESE 6.9 mph - N/A   Overcast
4:11 PM 39.2 °F 35.0 °F 26.2 °F 60% 29.99 in 10.0 mi SE 5.8 mph - N/A   Overcast
4:31 PM 38.8 °F 33.8 °F 26.2 °F 61% 29.98 in 10.0 mi ESE 6.9 mph - N/A   Overcast
5:12 PM 38.3 °F 33.9 °F 26.2 °F 62% 29.98 in 10.0 mi ESE 5.8 mph - N/A   Overcast
5:32 PM 37.6 °F 35.1 °F 26.4 °F 64% 29.98 in 10.0 mi ESE 3.5 mph - N/A   Overcast
5:52 PM 37.0 °F 34.5 °F 26.8 °F 66% 29.98 in 10.0 mi East 3.5 mph - N/A   Mostly Cloudy
6:12 PM 36.9 °F 33.1 °F 27.1 °F 68% 29.98 in 10.0 mi East 4.6 mph - N/A   Scattered Clouds
6:32 PM 36.0 °F 32.1 °F 27.9 °F 72% 29.99 in 10.0 mi East 4.6 mph - N/A   Mostly Cloudy
6:52 PM 36.1 °F 31.4 °F 27.3 °F 70% 29.98 in 10.0 mi East 5.8 mph - N/A   Overcast
7:12 PM 35.2 °F 30.3 °F 26.6 °F 71% 29.98 in 10.0 mi East 5.8 mph - N/A   Overcast
7:32 PM 33.8 °F 30.8 °F 26.4 °F 74% 29.99 in 10.0 mi East 3.5 mph - N/A   Scattered Clouds
7:53 PM 33.8 °F 27.7 °F 26.6 °F 75% 29.99 in 10.0 mi East 6.9 mph - N/A   Clear
8:13 PM 33.4 °F 27.3 °F 27.0 °F 77% 29.99 in 10.0 mi East 6.9 mph - N/A   Clear
8:33 PM 33.4 °F 28.1 °F 27.1 °F 78% 29.99 in 10.0 mi ESE 5.8 mph - N/A   Clear
8:53 PM 33.6 °F 26.8 °F 27.3 °F 78% 29.99 in 10.0 mi ESE 8.1 mph - N/A   Clear
9:13 PM 33.1 °F 28.7 °F 27.3 °F 79% 29.99 in 10.0 mi ESE 4.6 mph - N/A   Clear
9:33 PM 31.3 °F 27.9 °F 26.6 °F 83% 30.01 in 10.0 mi SE 3.5 mph - N/A   Clear
9:53 PM 31.5 °F 26.8 °F 27.3 °F 85% 30.01 in 10.0 mi ESE 4.6 mph - N/A   Clear
10:13 PM 32.0 °F 28.7 °F 27.1 °F 82% 30.00 in 10.0 mi ESE 3.5 mph - N/A   Mostly Cloudy
10:34 PM 31.6 °F 28.3 °F 26.8 °F 82% 30.01 in 10.0 mi ESE 3.5 mph - N/A   Scattered Clouds
10:54 PM 31.1 °F 27.7 °F 27.3 °F 86% 30.00 in 10.0 mi East 3.5 mph - N/A   Mostly Cloudy
11:14 PM 31.6 °F - 27.5 °F 85% 29.99 in 10.0 mi Calm Calm - N/A   Overcast
11:34 PM 31.6 °F - 28.0 °F 87% 29.99 in 10.0 mi Calm Calm - N/A   Overcast
11:53 PM 32.0 °F - 28.0 °F 85% 29.99 in 10.0 mi Calm Calm - N/A   Overcast